sat.trackr.live / text

‹ back to catalog

STARLINK-32891

NORAD 62927 · 2025-027W

PAYLOAD ACTIVE UNKNOWN

§ Identity

Operator
Country
US
Launch date
2025-02-08
Launch site
AFETR
Launch vehicle
Mass (kg)
RCS (m²)

Purposes: comms

External: N2YO · Heavens-Above · Gunter

§ Orbital elements

Epoch: 2026-05-25T03:40:52.654080Z

Period
94.27 min
Inclination
43.0035°
Eccentricity
0.0001546
Mean motion
15.27598717 rev/d
Perigee alt
481.9 km
Apogee alt
484.1 km
Semi-major
6,861.1 km
B*
6.3189e-4
RAAN
57.2827°
Arg perigee
269.1922°
Mean anomaly
90.8752°
Rev number
7,335

§ Raw data

STARLINK-328911 62927U 25027W   26145.15338720  .00017176  00000+0  63189-3 0  99902 62927  43.0035  57.2827 0001546 269.1922  90.8752 15.27598717 73352

JSON: /api/v1/satellites/62927 · /tle

For live sub-satellite position, see the globe view (requires WebGL).

§ Visibility from observer

Set your observer location to see the next 7 days of passes ≥ 10°. The values pass through the URL so the page stays shareable.

No JS? Fill the form by hand. The geolocation button needs JavaScript.